Miscellaneous Local Product
Issued by NWS Hastings, NE

Home | Current Version | Previous Version | Text Only | Print | Product List | Glossary Off
Versions: 1 2 3 4 5 6 7 8 9 10 11 12 13 14 15 16 17 18 19 20 21 22 23 24 25 26 27 28 29 30 31 32 33 34 35 36 37 38 39 40 41 42 43 44 45 46 47 48 49 50

000
AXUS43 KGID 300402
MISGRI

GID CWA HOURLY WEATHER ROUNDUP
NATIONAL WEATHER SERVICE HASTINGS NE
1100 PM CDT TUE JUL 29 2014

NOTE: "FAIR" INDICATES FEW OR NO CLOUDS BELOW 12,000 FEET WITH NO
SIGNIFICANT WEATHER AND/OR OBSTRUCTIONS TO VISIBILITY.

...SOUTH CENTRAL NEBRASKA...

CITY           SKY/WX    TMP DP  RH WIND       PRES   REMARKS
GRAND ISLAND   CLOUDY    68  61  78 E3        30.17R
HASTINGS       CLOUDY    68  56  65 E7        30.16R
KEARNEY        CLOUDY    68  59  73 E9        30.17R
ORD            MOCLDY    64  59  83 CALM      30.17R
YORK           CLOUDY    64  59  82 NE5       30.16R
AURORA         CLOUDY    67  63  86 CALM      30.17R
LEXINGTON      CLOUDY    69  61  74 E5        30.17R
HOLDREGE       CLOUDY    67  59  74 E8        30.16S
HEBRON         CLOUDY    67  56  68 E3        30.14S

...NEBRASKA PANHANDLE...

CITY           SKY/WX    TMP DP  RH WIND       PRES   REMARKS
CHADRON        CLOUDY    63  55  75 N5        30.23R
ALLIANCE       CLOUDY    67  54  63 E5        30.24R
SCOTTSBLUFF    LGT RAIN  65  64  97 W5        30.27R
SIDNEY         LGT RAIN  63  57  81 S6        30.27R

...WESTERN AND NORTH CENTRAL NEBRASKA...

CITY           SKY/WX    TMP DP  RH WIND       PRES   REMARKS
VALENTINE      MOCLDY    61  50  67 NW3       30.20R
AINSWORTH      MOCLDY    62  54  75 CALM      30.19R
ONEILL         CLEAR     65  55  69 SE5       30.17R
BROKEN BOW     CLOUDY    69  59  70 E8        30.18R
IMPERIAL       CLOUDY    72  58  61 E13       30.18R
NORTH PLATTE   CLOUDY    68  60  75 SE6       30.19R
MCCOOK         CLOUDY    71  59  65 E14       30.15R

...EASTERN NEBRASKA...

CITY           SKY/WX    TMP DP  RH WIND       PRES   REMARKS
NORFOLK        CLEAR     60  55  83 CALM      30.15S
SO SIOUX CITY  CLEAR     59  55  87 CALM      30.14R
TEKAMAH        CLEAR     60  56  86 NW3       30.13S
ALBION         PTCLDY    61  56  84 CALM      30.18R
OMAHA EPPLEY   CLEAR     63  58  83 NW5       30.14R
OFFUTT AFB     PTCLDY    60  60  99 CALM      30.13R
MILLARD        PTCLDY    65  58  80 CALM      30.14R
LINCOLN        MOCLDY    69  54  58 CALM      30.15R
NEBRASKA CITY  MOCLDY    65  55  69 CALM      30.14R
BEATRICE       PTCLDY    66  57  74 CALM      30.14S
FALLS CITY     PTCLDY    68  58  70 CALM      30.12R

...NORTHERN KANSAS...

CITY           SKY/WX    TMP DP  RH WIND       PRES   REMARKS
GOODLAND       LGT RAIN  71  63  75 E8        30.15R
HILL CITY      CLOUDY    75  57  53 E13       30.13R
NORTON         MOCLDY    72  55  56 E12       30.14R
PHILLIPSBURG   MOCLDY    73  55  53 E12       30.13R
SMITH CENTER   MOCLDY    70  57  64 E13       30.13S
HAYS           CLOUDY    75  55  50 E14       30.12S
RUSSELL        CLOUDY    74  58  57 E9        30.11R
CONCORDIA      CLOUDY    70  59  68 E6        30.13R
SALINA         CLOUDY    76  59  55 E9        30.11R
TOPEKA         PTCLDY    72  61  68 CALM      30.11R



USA.gov is the U.S. government's official web portal to all federal, state and local government web resources and services.